Location: Ferchesar
(52.6477°N, 12.4298°E)
Time: 12:19:44
(UTC+02:00)

Transit 4A - Pass Details

Date: 02 March 2021
Orbit: 869 x 975 km, 66.8° (Epoch: 15 April)

Event Time Altitude Azimuth Distance (km) Brightness Sun altitude
Rises 12:01:20 0° 231° (SW) 3,660 11.4 30.2°
Reaches altitude 10° 12:03:57 10° 235° (SW) 2,709 10.8 30.2°
Maximum altitude 12:10:14 62° 316° (NW) 1,075 8.5 30.3°
Drops below altitude 10° 12:16:24 10° 37° (NE) 2,663 10.0 30.3°
Sets 12:18:58 0° 41° (NE) 3,594 10.6 30.3°
